Weather History for KPIL - March, 2013

Change the Weather History Date:

Sunday, March 31, 2013

  Actual Average Record
Temperature  
Mean Temperature 78 °F -  
Max Temperature 88 °F - - ()
Min Temperature 69 °F - - ()
Cooling Degree Days 13    
Growing Degree Days 28 (Base 50)    
Moisture  
Dew Point 67 °F    
Average Humidity 75    
Maximum Humidity 90    
Minimum Humidity 48    
Precipitation  
Precipitation 0.00 in - - ()
Sea Level Pressure  
Sea Level Pressure 29.89 in    
Wind  
Wind Speed 12 mph (SSE)    
Max Wind Speed 22 mph    
Max Gust Speed 32 mph    
Visibility 6 miles    
Events      
T = Trace of Precipitation, MM = Missing Value Source: NWS Daily Summary

Daily Weather History Graph

Daily Weather History Graph

Search for Another Location

Airport or City:

Trip Planner

Search our weather history database for the weather conditions in past years. The results will help you decide how hot, cold, wet, or windy it might be!

Date:

Astronomy

Mar. 31, 2013 Rise Set
Actual Time 7:21 AM CDT 7:45 PM CDT
Civil Twilight 6:58 AM CDT 8:09 PM CDT
Nautical Twilight 6:30 AM CDT 8:36 PM CDT
Astronomical Twilight 6:03 AM CDT 9:03 PM CDT
Moon No Moon Rise 10:34 AM CDT (3/31)
Length of Visible Light 13h 11m
Length of Day
12h 24m
Waning Gibbous, 77% of the Moon is Illuminated
Mar 31
Waning Gibbous
Apr 2
Last Quarter
Apr 10
New
Apr 18
First Quarter
Apr 25
Full

Hourly Weather History & Observations

Time (CDT) Temp. Heat Index Dew Point Humidity Pressure Visibility Wind Dir Wind Speed Gust Speed Precip Events Conditions
12:53 AM 71.1 °F - 66.0 °F 84% 29.98 in 8.0 mi SSE 8.1 mph - N/A   Clear
1:53 AM 71.1 °F - 66.0 °F 84% 29.96 in 8.0 mi SSE 8.1 mph - N/A   Clear
2:53 AM 70.0 °F - 66.0 °F 87% 29.94 in 7.0 mi SSE 8.1 mph - N/A   Clear
3:15 AM 71.6 °F - 66.2 °F 83% 29.94 in 7.0 mi South 9.2 mph - N/A   Mostly Cloudy
3:45 AM 69.8 °F - 66.2 °F 88% 29.92 in 6.0 mi SSE 8.1 mph - N/A   Scattered Clouds
3:53 AM 71.1 °F - 66.9 °F 87% 29.92 in 6.0 mi SSE 8.1 mph - N/A   Scattered Clouds
4:01 AM 71.6 °F - 66.2 °F 83% 29.91 in 6.0 mi SSE 10.4 mph - N/A   Mostly Cloudy
4:51 AM 71.6 °F - 66.2 °F 83% 29.90 in 6.0 mi SSE 5.8 mph - N/A   Overcast
4:53 AM 71.1 °F - 66.9 °F 87% 29.90 in 6.0 mi SSE 8.1 mph - N/A   Overcast
5:53 AM 70.0 °F - 66.9 °F 90% 29.90 in 5.0 mi SSE 8.1 mph - N/A   Overcast
6:29 AM 69.8 °F - 66.2 °F 88% 29.90 in 5.0 mi SSE 8.1 mph - N/A   Overcast
6:53 AM 70.0 °F - 66.9 °F 90% 29.91 in 5.0 mi SSE 6.9 mph - N/A   Overcast
7:53 AM 70.0 °F - 66.9 °F 90% 29.91 in 3.0 mi SSE 9.2 mph - N/A   Overcast
8:13 AM 71.6 °F - 68.0 °F 88% 29.91 in 3.0 mi SSE 8.1 mph - N/A   Overcast
8:31 AM 71.6 °F - 68.0 °F 88% 29.92 in 4.0 mi SSE 9.2 mph - N/A   Overcast
8:53 AM 73.0 °F - 69.1 °F 87% 29.92 in 4.0 mi SSE 15.0 mph - N/A   Overcast
9:40 AM 77.0 °F - 68.0 °F 74% 29.93 in 6.0 mi SSE 16.1 mph - N/A   Haze
9:53 AM 79.0 °F - 68.0 °F 69% 29.93 in 6.0 mi South 13.8 mph - N/A   Haze
10:10 AM 78.8 °F - 66.2 °F 65% 29.93 in 5.0 mi South 18.4 mph 25.3 mph N/A   Haze
10:21 AM 78.8 °F - 66.2 °F 65% 29.92 in 6.0 mi South 17.3 mph - N/A   Haze
10:53 AM 82.0 °F 84.1 °F 66.0 °F 58% 29.92 in 6.0 mi South 16.1 mph 24.2 mph N/A   Haze
11:53 AM 84.0 °F 85.8 °F 64.9 °F 53% 29.91 in 7.0 mi South 17.3 mph 25.3 mph N/A   Clear
12:53 PM 87.1 °F 88.9 °F 64.9 °F 48% 29.90 in 6.0 mi SSE 18.4 mph 31.1 mph N/A   Haze
1:34 PM 87.8 °F 90.4 °F 66.2 °F 49% 29.88 in 6.0 mi South 19.6 mph 27.6 mph N/A   Haze
1:53 PM 87.1 °F 89.2 °F 66.0 °F 49% 29.87 in 6.0 mi SSE 20.7 mph 32.2 mph N/A   Haze
2:02 PM 86.0 °F 88.2 °F 66.2 °F 51% 29.86 in 6.0 mi SSE 20.7 mph 29.9 mph N/A   Haze
2:53 PM 86.0 °F 88.2 °F 66.0 °F 51% 29.84 in 6.0 mi SSE 21.9 mph 28.8 mph N/A   Haze
3:53 PM 84.0 °F 86.5 °F 66.9 °F 56% 29.81 in 6.0 mi SSE 20.7 mph 29.9 mph N/A   Haze
4:02 PM 84.2 °F 86.6 °F 66.2 °F 55% 29.81 in 7.0 mi SSE 18.4 mph - N/A   Overcast
4:41 PM 82.4 °F 84.6 °F 66.2 °F 58% 29.79 in 7.0 mi SE 21.9 mph 28.8 mph N/A   Overcast
4:53 PM 82.0 °F 84.9 °F 68.0 °F 62% 29.79 in 7.0 mi SSE 19.6 mph 28.8 mph N/A   Overcast
5:53 PM 79.0 °F - 68.0 °F 69% 29.79 in 8.0 mi SE 17.3 mph 23.0 mph N/A   Overcast
6:53 PM 78.1 °F - 66.9 °F 68% 29.80 in 8.0 mi SSE 18.4 mph - N/A   Overcast
7:53 PM 75.0 °F - 68.0 °F 79% 29.79 in 7.0 mi SE 18.4 mph 25.3 mph N/A   Mostly Cloudy
8:01 PM 75.2 °F - 68.0 °F 78% 29.80 in 8.0 mi SE 16.1 mph - N/A   Mostly Cloudy
8:53 PM 73.9 °F - 68.0 °F 82% 29.82 in 7.0 mi SE 13.8 mph - N/A   Overcast
9:53 PM 73.9 °F - 69.1 °F 85% 29.91 in 7.0 mi ENE 11.5 mph - N/A   Overcast
10:08 PM 73.4 °F - 69.8 °F 88% 29.92 in 7.0 mi East 12.7 mph - N/A   Overcast
10:53 PM 73.9 °F - 69.1 °F 85% 29.96 in 7.0 mi ENE 12.7 mph - N/A   Overcast
11:22 PM 73.4 °F - 69.8 °F 88% 29.96 in 7.0 mi ENE 15.0 mph 21.9 mph N/A   Mostly Cloudy
11:29 PM 73.4 °F - 69.8 °F 88% 29.97 in 7.0 mi ENE 11.5 mph 21.9 mph N/A   Scattered Clouds
11:53 PM 73.9 °F - 69.1 °F 85% 29.94 in 7.0 mi East 16.1 mph - N/A   Clear